Regional Weather Roundup
Issued by NWS Goodland, KS

Home | Current Version | Previous Version | Text Only | Print | Product List | Glossary Off
Versions: 1 2 3 4 5 6 7 8 9 10 11 12 13 14 15 16 17 18 19 20 21 22 23 24 25 26 27 28 29 30 31 32 33 34 35 36 37 38 39 40 41 42 43 44 45 46 47 48 49 50

000
ASUS43 KGLD 061359
RWRGLD

GOODLAND FORECAST AREA HOURLY WEATHER ROUNDUP
NATIONAL WEATHER SERVICE GOODLAND KS
800 AM MDT WED MAY 06 2015

...OFFICIAL OBSERVATIONS...

CITY           SKY/WX    TMP DP  RH WIND       PRES   REMARKS
GOODLAND KS    CLOUDY    52  51  97 S14       29.69F
HILL CITY KS   CLOUDY    62  56  80 S15G22    29.72F
IMPERIAL NEB   CLOUDY    56  52  86 SE8       29.69S
MCCOOK NEB     CLOUDY    60  56  86 S10       29.70F
AKRON CO       CLOUDY    51  51 100 SW15      29.66S
BURLINGTON CO  CLOUDY    50  48  93 S10       29.70S
LIMON CO       LGT RAIN  49  47  93 SW5       29.73S
$$

...UNOFFICIAL OBSERVATIONS...

CITY           SKY/WX    TMP DP  RH WIND       PRES   REMARKS
GOVE KS          N/A     57  32  39 MISG        N/A
LENORA KS        N/A     60  32  34 MISG        N/A
SHARON SPRINGS   N/A     51  50  97 MISG        N/A
KIT CARSON CO    N/A     49  47  93 MISG        N/A
$$



USA.gov is the U.S. government's official web portal to all federal, state and local government web resources and services.